Terug naar catalogus

NAVSTAR 64

USA 206

ActiefNavigatieHEO
NORAD 35752·PAYLOAD·🇺🇸 United States

Gelanceerd Aug 17, 2009 vanaf Cape Canaveral Space Force Station

Loading…

Volgende Passages (komende 24 uur)

TLE

VersSource: CelesTrak SupGP

Epoch: Sep 17, 2026, 16:38 UTC

1 35752C 09043A   26260.69312500  .00000000  00000+0  00000+0 0  2609
2 35752  56.2642  23.8255 0051414  86.2372 154.1567  2.00577032    13

Volg NAVSTAR 64 in realtime met AllMySat

Download on the App Store